Meteor 2-10 - Orbit

View from above orbital plane
View from above orbital plane
View from above satellite
View from above satellite

Ground track
Ground track

The orbit data is extracted from the following two-line orbital elements,

1 14452U 83109A   13168.17123367  .00000071  00000-0  23568-4 0  2445
2 14452 081.1635 110.7037 0089746 298.4465 060.7694 14.26107458540754
Epoch (UTC): 17 June 2013 04:06:34
Eccentricity: 0.0089746
inclination: 81.1635°
perigee height: 740 km
apogee height: 869 km
right ascension of ascending node: 110.7037°
argument of perigee: 298.4465°
revolutions per day: 14.26107458
mean anomaly at epoch: 60.7694°
orbit number at epoch: 54075

The dashed part of the orbit path shows where the satellite is in the earth's shadow,  

Developed and maintained by Chris Peat, Heavens-Above GmbH. Please read the updated FAQ before sending e-mail. Imprint. DLR